O/OREOS (USA 219)

Last updated on Thu Oct 30 2025 00:03:10 GMT+0000 (Coordinated Universal Time)

1 37224U 10062C 25302.18839443 .00004255 00000+0 42146-3 0 9994 2 37224 71.9709 243.0743 0013811 154.6280 205.5571 14.92301683 82165
UTC large
Height (km)
Speed (km/s)
/
Latitude / Longitude
Inclination (degrees)
Orbital Period (minutes)
Azimuth
Elevation
Range (km)
Doppler Factor

Next 0 passes for location: London (51.5072 / 0.1276)

Sorry there are no passes over London.